Location: Berlin
(52.5170°N, 13.4000°E)
Time: 23:30:09
(UTC+02:00)

ISS - Pass Details

Date: 18 July 2018
Orbit: 402 x 408 km, 51.6° (Epoch: 16 July)

Event Time Altitude Azimuth Distance (km) Brightness Sun altitude
Rises 03:58:07 0° 280° (W) 2,332 -0.3 -8.1°
Reaches altitude 10° 04:00:15 10° 274° (W) 1,471 -1.3 -7.9°
Maximum altitude 04:03:25 45° 201° (SSW) 566 -3.5 -7.6°
Drops below altitude 10° 04:06:35 10° 127° (SE) 1,468 -0.9 -7.3°
Sets 04:08:42 0° 121° (ESE) 2,327 0.2 -7.1°
